Location: *
(49.3500°N, 12.6000°E)
Time: 20:18:19
(UTC+00:00)

STARLINK-74 - Pass Details

Date: 18 October 2019
Orbit: 548 x 551 km, 53.0° (Epoch: 10 November)

Event Time Altitude Azimuth Distance (km) Brightness Sun altitude
Rises 18:15:15 0° 274° (W) 2,716 8.7 -20.4°
Reaches altitude 10° 18:17:32 10° 279° (W) 1,823 7.5 -20.8°
Maximum altitude 18:21:35 50° 356° (N) 702 4.1 -21.4°
Enters shadow 18:22:13 45° 28° (NNE) 751 4.1 -21.5°
